Home > Weather > Eberswalde > Past weeks

Flag for Germany Past Weather in Eberswalde, Brandenburg, Germany — Yesterday and Last 2 Weeks

Now
54 °F

Low clouds.


Feels Like: 51 °F
Forecast: 57 / 69 °F
Wind: 9 mph from Northwest

Location: Berlin-Tegel

Current Time: May 25, 2016 at 9:20:27 AM

Latest Report: May 25, 2016 at 8:50 AM


Visibility: 5 mi

Pressure: 29.92 "Hg

Humidity: 94%

Dew Point: 52 °F

Location of EberswaldeLocation

Past Weather in Eberswalde — Graph

°F

Eberswalde Temperature Yesterday

Maximum temperature yesterday: 66 °F (at 2:50 PM)
Minimum temperature yesterday: 55 °F (at 4:50 AM)
Average temperature yesterday: 61 °F

High & Low Weather Summary for the Past Weeks

 TemperatureHumidityPressure
High84 °F (May 22, 2:50 PM)100% (May 24, 5:20 AM)30.07 "Hg (May 24, 5:20 AM)
Low41 °F (May 16, 2:50 AM)20% (May 19, 2:50 PM)29.50 "Hg (May 13, 2:50 PM)
Average61 °F56%29.83 "Hg
* Reported May 10 8:20 AM — May 25 8:20 AM, Eberswalde, Weather by CustomWeather, © 2016

Note: Actual official high and low records may vary slightly from our data, if they occured in-between our weather recording intervals... More about our weather records

Advertising

Eberswalde Weather History for the Previous 24 Hours

Scroll right to see more
 ConditionsComfort  
Time TempWeatherWind HumidityBarometerVisibility
8:20 AM
Wed, May 25
55 °FPartly sunny.8 mph88%29.92 "Hg5 mi
7:50 AM55 °FPartly sunny.10 mph88%29.92 "Hg4 mi
7:20 AM54 °FPartly sunny.8 mph94%29.92 "Hg4 mi
6:50 AM54 °FFog.9 mph94%29.92 "Hg3 mi
6:20 AM54 °FFog.9 mph94%29.92 "Hg3 mi
5:50 AM54 °FFog.10 mph94%29.89 "Hg3 mi
5:20 AM54 °FFog.8 mph94%29.89 "Hg3 mi
4:50 AM54 °FFog.9 mph94%29.89 "Hg3 mi
4:20 AM55 °FFog.9 mph94%29.89 "Hg3 mi
3:50 AM55 °FPartly cloudy.9 mph88%29.89 "Hg4 mi
3:20 AM55 °FPassing clouds.7 mph94%29.89 "Hg4 mi
2:50 AM55 °FPassing clouds.8 mph94%29.89 "Hg4 mi
2:20 AM55 °FPassing clouds.9 mph94%29.89 "Hg4 mi
1:50 AM57 °FPassing clouds.10 mph88%29.89 "Hg5 mi
1:20 AM57 °FPassing clouds.12 mph88%29.89 "HgN/A
12:50 AM57 °FPassing clouds.9 mph88%29.89 "HgN/A
12:20 AM57 °FPassing clouds.9 mph88%29.89 "HgN/A
11:50 PM
Tue, May 24
59 °FPassing clouds.8 mph82%29.89 "HgN/A
11:20 PM59 °FPassing clouds.8 mph82%29.86 "HgN/A
10:50 PM59 °FPassing clouds.8 mph82%29.86 "HgN/A
10:20 PM59 °FPassing clouds.8 mph82%29.86 "HgN/A
9:50 PM59 °FPartly sunny.12 mph82%29.86 "HgN/A
9:20 PM59 °FPartly sunny.13 mph82%29.86 "HgN/A
8:50 PM59 °FPartly sunny.10 mph82%29.83 "HgN/A
8:20 PM59 °FPartly sunny.9 mph82%29.86 "HgN/A
7:50 PM59 °FPartly sunny.10 mph82%29.86 "HgN/A
7:20 PM61 °FPartly sunny.10 mph77%29.86 "HgN/A
6:50 PM61 °FPartly sunny.12 mph83%29.83 "HgN/A
6:20 PM61 °FPartly sunny.12 mph83%29.83 "HgN/A
5:50 PM61 °FPartly sunny.13 mph83%29.83 "HgN/A
5:20 PM63 °FPartly sunny.13 mph77%29.83 "HgN/A
4:50 PM63 °FBroken clouds.13 mph77%29.80 "HgN/A
4:20 PM64 °FPartly sunny.12 mph78%29.80 "HgN/A
3:50 PM64 °FPartly sunny.12 mph78%29.80 "HgN/A
3:20 PM66 °FPartly sunny.12 mph73%29.80 "HgN/A
2:50 PM66 °FPartly sunny.10 mph73%29.80 "HgN/A
2:20 PM64 °FPartly sunny.9 mph78%29.80 "HgN/A
1:50 PM63 °FPartly sunny.9 mph83%29.80 "HgN/A
1:20 PM63 °FPartly sunny.8 mph83%29.80 "HgN/A
12:50 PM63 °FPartly sunny.8 mph83%29.80 "HgN/A
12:20 PM63 °FPartly sunny.7 mph83%29.80 "HgN/A
11:50 AM63 °FPartly sunny.9 mph83%29.80 "HgN/A
11:20 AM63 °FPartly sunny.7 mph83%29.80 "HgN/A
10:50 AM61 °FPartly sunny.10 mph88%29.80 "HgN/A
10:20 AM63 °FPartly sunny.8 mph83%29.77 "Hg5 mi
9:50 AM63 °FBroken clouds.8 mph83%29.77 "Hg4 mi
9:20 AM63 °FBroken clouds.8 mph83%29.77 "Hg4 mi
Weather by CustomWeather, © 2016

See weather overviewHow to use our weather pages